Year,Month,Day,Hour,Minute,Value (Times are PST for barometer in hPa)
2021,11,05,00,00,995.70
2021,11,05,00,01,995.70
2021,11,05,00,02,995.70
2021,11,05,00,03,995.70
2021,11,05,00,04,995.70
2021,11,05,00,05,995.70
2021,11,05,00,06,995.26
2021,11,05,00,07,995.02
2021,11,05,00,08,994.40
2021,11,05,00,09,994.14
2021,11,05,00,10,994.14
2021,11,05,00,11,994.14
2021,11,05,00,12,994.14
2021,11,05,00,13,994.14
2021,11,05,00,14,995.60
2021,11,05,00,15,996.38
2021,11,05,00,16,996.38
2021,11,05,00,17,996.38
2021,11,05,00,18,992.26
2021,11,05,00,19,990.49
2021,11,05,00,20,990.49
2021,11,05,00,21,990.49
2021,11,05,00,22,990.49
2021,11,05,00,23,990.49
2021,11,05,00,24,990.49
2021,11,05,00,25,998.45
2021,11,05,00,26,1002.74
2021,11,05,00,27,1002.74
2021,11,05,00,28,1001.05
2021,11,05,00,29,1000.14
2021,11,05,00,30,1000.14
2021,11,05,00,31,1000.14
2021,11,05,00,32,1000.14
2021,11,05,00,33,999.57
2021,11,05,00,34,999.26
2021,11,05,00,35,999.26
2021,11,05,00,36,999.26
2021,11,05,00,37,999.52
2021,11,05,00,38,999.66
2021,11,05,00,39,999.66
2021,11,05,00,40,999.66
2021,11,05,00,41,998.26
2021,11,05,00,42,997.50
2021,11,05,00,43,998.14
2021,11,05,00,44,998.48
2021,11,05,00,45,997.60
2021,11,05,00,46,997.12
2021,11,05,00,47,997.96
2021,11,05,00,48,998.69
2021,11,05,00,49,998.85
2021,11,05,00,50,998.85
2021,11,05,00,51,998.85
2021,11,05,00,52,998.85
2021,11,05,00,53,998.85
2021,11,05,00,54,998.85
2021,11,05,00,55,998.85
2021,11,05,00,56,998.85
2021,11,05,00,57,998.85
2021,11,05,00,58,998.85
2021,11,05,00,59,998.85
2021,11,05,01,00,999.47
2021,11,05,01,01,999.80
2021,11,05,01,02,999.80
2021,11,05,01,03,1002.19
2021,11,05,01,04,1003.78
2021,11,05,01,05,1003.83
2021,11,05,01,06,1007.04
2021,11,05,01,07,1008.77
2021,11,05,01,08,1008.77
2021,11,05,01,09,1008.77
2021,11,05,01,10,1008.77
2021,11,05,01,11,1005.60
2021,11,05,01,12,1004.13
2021,11,05,01,13,1004.13
2021,11,05,01,14,1004.13
2021,11,05,01,15,1004.13
2021,11,05,01,16,1004.13
2021,11,05,01,17,1004.13
2021,11,05,01,18,1006.77
2021,11,05,01,19,1007.88
2021,11,05,01,20,1007.82
2021,11,05,01,21,1007.82
2021,11,05,01,22,1008.70
2021,11,05,01,23,1009.18
2021,11,05,01,24,1010.32
2021,11,05,01,25,1010.92
2021,11,05,01,26,1010.88
2021,11,05,01,27,1010.87
2021,11,05,01,28,1009.95
2021,11,05,01,29,1009.45
2021,11,05,01,30,1010.46
2021,11,05,01,31,1011.01
2021,11,05,01,32,1011.01
2021,11,05,01,33,1009.16
2021,11,05,01,34,1008.16
2021,11,05,01,35,1010.11
2021,11,05,01,36,1010.98
2021,11,05,01,37,1010.97
2021,11,05,01,38,1011.02
2021,11,05,01,39,1011.04
2021,11,05,01,40,1011.04
2021,11,05,01,41,1011.04
2021,11,05,01,42,1005.24
2021,11,05,01,43,1002.57
2021,11,05,01,44,1002.57
2021,11,05,01,45,1002.57
2021,11,05,01,46,1006.12
2021,11,05,01,47,1008.14
2021,11,05,01,48,1008.20
2021,11,05,01,49,1008.20
2021,11,05,01,50,1008.20
2021,11,05,01,51,1008.20
2021,11,05,01,52,1008.20
2021,11,05,01,53,1008.20
2021,11,05,01,54,1008.20
2021,11,05,01,55,1008.20
2021,11,05,01,56,1008.20
2021,11,05,01,57,1008.20
2021,11,05,01,58,1008.20
2021,11,05,01,59,1008.20
2021,11,05,02,00,1009.22
2021,11,05,02,01,1009.69
2021,11,05,02,02,1009.56
2021,11,05,02,03,1009.38
2021,11,05,02,04,1009.45
2021,11,05,02,05,1009.36
2021,11,05,02,06,1009.28
2021,11,05,02,07,1009.26
2021,11,05,02,08,1009.17
2021,11,05,02,09,1009.14
2021,11,05,02,10,1009.14
2021,11,05,02,11,1005.53
2021,11,05,02,12,1003.44
2021,11,05,02,13,1003.22
2021,11,05,02,14,1003.22
2021,11,05,02,15,1003.22
2021,11,05,02,16,1003.22
2021,11,05,02,17,1003.22
2021,11,05,02,18,1003.22
2021,11,05,02,19,1003.22
2021,11,05,02,20,1007.14
2021,11,05,02,21,1009.43
2021,11,05,02,22,1009.61
2021,11,05,02,23,1009.50
2021,11,05,02,24,1009.67
2021,11,05,02,25,1009.93
2021,11,05,02,26,1009.77
2021,11,05,02,27,1009.81
2021,11,05,02,28,1009.87
2021,11,05,02,29,1009.83
2021,11,05,02,30,1009.74
2021,11,05,02,31,1009.69
2021,11,05,02,32,1009.69
2021,11,05,02,33,1009.69
2021,11,05,02,34,1009.69
2021,11,05,02,35,1009.69
2021,11,05,02,36,1005.55
2021,11,05,02,37,1003.32
2021,11,05,02,38,1005.92
2021,11,05,02,39,1007.52
2021,11,05,02,40,1008.27
2021,11,05,02,41,1008.69
2021,11,05,02,42,1008.44
2021,11,05,02,43,1008.43
2021,11,05,02,44,1008.63
2021,11,05,02,45,1008.70
2021,11,05,02,46,1008.70
2021,11,05,02,47,1008.70
2021,11,05,02,48,1003.03
2021,11,05,02,49,999.97
2021,11,05,02,50,999.97
2021,11,05,02,51,999.97
2021,11,05,02,52,999.97
2021,11,05,02,53,999.97
2021,11,05,02,54,999.97
2021,11,05,02,55,999.97
2021,11,05,02,56,999.97
2021,11,05,02,57,999.97
2021,11,05,02,58,999.97
2021,11,05,02,59,1004.18
2021,11,05,03,00,1006.64
2021,11,05,03,01,1006.64
2021,11,05,03,02,1006.64
2021,11,05,03,06,1006.64
2021,11,05,03,07,1006.64
2021,11,05,03,08,1006.64
2021,11,05,03,09,1008.70
2021,11,05,03,10,1009.15
2021,11,05,03,11,1009.14
2021,11,05,03,12,1008.83
2021,11,05,03,13,1009.10
2021,11,05,03,14,1009.18
2021,11,05,03,15,1008.50
2021,11,05,03,16,1008.20
2021,11,05,03,17,1008.00
2021,11,05,03,18,1007.99
2021,11,05,03,19,1007.99
2021,11,05,03,20,1008.29
2021,11,05,03,21,1008.15
2021,11,05,03,22,1007.91
2021,11,05,03,23,1007.94
2021,11,05,03,24,1007.77
2021,11,05,03,25,1007.99
2021,11,05,03,26,1007.95
2021,11,05,03,27,1007.93
2021,11,05,03,28,1007.93
2021,11,05,03,29,1007.93
2021,11,05,03,30,1007.93
2021,11,05,03,31,1007.93
2021,11,05,03,32,1007.93
2021,11,05,03,33,1007.93
2021,11,05,03,34,1004.90
2021,11,05,03,35,1004.37
2021,11,05,03,36,1001.96
2021,11,05,03,37,1001.36
2021,11,05,03,38,1001.36
2021,11,05,03,39,1000.92
2021,11,05,03,40,1000.81
2021,11,05,03,41,1000.81
2021,11,05,03,42,1000.81
2021,11,05,03,43,1000.81
2021,11,05,03,44,1005.53
2021,11,05,03,45,1006.95
2021,11,05,03,46,1007.28
2021,11,05,03,47,1007.19
2021,11,05,03,48,1007.45
2021,11,05,03,49,1007.52
2021,11,05,03,50,1007.52
2021,11,05,03,51,1007.52
2021,11,05,03,52,1007.52
2021,11,05,03,53,1007.52
2021,11,05,03,54,1007.52
2021,11,05,03,55,1007.52
2021,11,05,03,56,1007.52
2021,11,05,03,57,1007.81
2021,11,05,03,58,1007.86
2021,11,05,03,59,1007.86
2021,11,05,04,00,1008.18
2021,11,05,04,01,1008.23
2021,11,05,04,02,1008.23
2021,11,05,04,03,1008.23
2021,11,05,04,04,1008.23
2021,11,05,04,05,1002.89
2021,11,05,04,06,1001.40
2021,11,05,04,07,1001.36
2021,11,05,04,08,1001.36
2021,11,05,04,09,1001.36
2021,11,05,04,10,997.43
2021,11,05,04,11,996.38
2021,11,05,04,12,996.38
2021,11,05,04,13,996.38
2021,11,05,04,14,996.38
2021,11,05,04,15,996.38
2021,11,05,04,16,996.38
2021,11,05,04,17,996.38
2021,11,05,04,18,1004.50
2021,11,05,04,19,1006.37
2021,11,05,04,20,1006.57
2021,11,05,04,21,1006.64
2021,11,05,04,22,1005.04
2021,11,05,04,23,1004.64
2021,11,05,04,24,1004.64
2021,11,05,04,25,1004.64
2021,11,05,04,26,1006.91
2021,11,05,04,27,1007.32
2021,11,05,04,28,1007.28
2021,11,05,04,29,1006.55
2021,11,05,04,30,1006.37
2021,11,05,04,31,1006.37
2021,11,05,04,32,1007.07
2021,11,05,04,33,1007.25
2021,11,05,04,34,1007.33
2021,11,05,04,35,1007.29
2021,11,05,04,36,1007.28
2021,11,05,04,37,1007.28
2021,11,05,04,38,1006.98
2021,11,05,04,39,1006.77
2021,11,05,04,40,1006.58
2021,11,05,04,41,1006.35
2021,11,05,04,42,1006.30
2021,11,05,04,43,1006.73
2021,11,05,04,44,1007.05
2021,11,05,04,45,1007.11
2021,11,05,04,46,1007.11
2021,11,05,04,47,1007.11
2021,11,05,04,48,1007.11
2021,11,05,04,49,1007.11
2021,11,05,04,50,1007.11
2021,11,05,04,51,1007.11
2021,11,05,04,52,1007.11
2021,11,05,04,53,1007.11
2021,11,05,04,54,1007.11
2021,11,05,04,55,1007.11
2021,11,05,04,56,1007.11
2021,11,05,04,57,1005.77
2021,11,05,04,58,1005.52
2021,11,05,04,59,1006.71
2021,11,05,05,00,1006.82
2021,11,05,05,01,1006.77
2021,11,05,05,02,1002.95
2021,11,05,05,03,1002.00
2021,11,05,05,04,1002.00
2021,11,05,05,05,1002.00
2021,11,05,05,06,1002.00
2021,11,05,05,07,1005.77
2021,11,05,05,08,1006.68
2021,11,05,05,09,1006.22
2021,11,05,05,10,1006.10
2021,11,05,05,11,1006.10
2021,11,05,05,12,1006.10
2021,11,05,05,13,1006.10
2021,11,05,05,14,1006.39
2021,11,05,05,15,1006.57
2021,11,05,05,16,1006.63
2021,11,05,05,17,1006.58
2021,11,05,05,18,1006.49
2021,11,05,05,19,1006.49
2021,11,05,05,20,1006.48
2021,11,05,05,21,1006.34
2021,11,05,05,22,1006.22
2021,11,05,05,23,1006.20
2021,11,05,05,24,1006.20
2021,11,05,05,25,1006.48
2021,11,05,05,26,1006.51
2021,11,05,05,27,1006.45
2021,11,05,05,28,1006.44
2021,11,05,05,29,1006.41
2021,11,05,05,30,1006.40
2021,11,05,05,31,1006.30
2021,11,05,05,32,1006.18
2021,11,05,05,33,1006.16
2021,11,05,05,34,1006.16
2021,11,05,05,35,1006.16
2021,11,05,05,36,1006.16
2021,11,05,05,37,1006.14
2021,11,05,05,38,1006.15
2021,11,05,05,39,1006.16
2021,11,05,05,40,1006.16
2021,11,05,05,41,1006.11
2021,11,05,05,42,1006.07
2021,11,05,05,43,1006.06
2021,11,05,05,44,1006.06
2021,11,05,05,45,1006.06
2021,11,05,05,46,1006.06
2021,11,05,05,47,1006.06
2021,11,05,05,48,1006.06
2021,11,05,05,49,1006.06
2021,11,05,05,50,1006.06
2021,11,05,05,51,1000.21
2021,11,05,05,52,998.65
2021,11,05,05,53,1004.31
2021,11,05,05,54,1005.67
2021,11,05,05,55,1005.60
2021,11,05,05,56,1005.48
2021,11,05,05,57,1005.40
2021,11,05,05,58,1005.33
2021,11,05,05,59,1005.26
2021,11,05,06,00,1005.31
2021,11,05,06,01,1005.26
2021,11,05,06,02,1005.27
2021,11,05,06,03,1005.26
2021,11,05,06,04,1005.27
2021,11,05,06,05,1005.26
2021,11,05,06,06,1005.23
2021,11,05,06,07,1005.27
2021,11,05,06,08,1005.26
2021,11,05,06,09,1005.25
2021,11,05,06,10,1005.23
2021,11,05,06,11,1005.30
2021,11,05,06,12,1005.32
2021,11,05,06,13,1005.42
2021,11,05,06,14,1005.40
2021,11,05,06,15,1005.44
2021,11,05,06,16,1005.45
2021,11,05,06,17,1005.45
2021,11,05,06,18,1005.51
2021,11,05,06,19,1005.54
2021,11,05,06,20,1005.55
2021,11,05,06,21,1005.58
2021,11,05,06,22,1005.56
2021,11,05,06,23,1005.58
2021,11,05,06,24,1005.51
2021,11,05,06,25,1005.51
2021,11,05,06,26,1005.58
2021,11,05,06,27,1005.53
2021,11,05,06,28,1005.50
2021,11,05,06,29,1005.51
2021,11,05,06,30,1005.46
2021,11,05,06,31,1005.48
2021,11,05,06,32,1005.51
2021,11,05,06,33,1005.46
2021,11,05,06,34,1005.53
2021,11,05,06,35,1005.66
2021,11,05,06,36,1005.71
2021,11,05,06,37,1005.81
2021,11,05,06,38,1005.93
2021,11,05,06,39,1006.03
2021,11,05,06,40,1006.12
2021,11,05,06,41,1006.13
2021,11,05,06,42,1006.13
2021,11,05,06,43,1006.13
2021,11,05,06,44,1006.13
2021,11,05,06,45,1006.13
2021,11,05,06,46,1006.13
2021,11,05,06,47,1006.61
2021,11,05,06,48,1006.76
2021,11,05,06,49,1006.80
2021,11,05,06,50,1006.81
2021,11,05,06,51,1006.78
2021,11,05,06,52,1006.77
2021,11,05,06,53,1006.77
2021,11,05,06,54,1006.77
2021,11,05,06,55,1006.77
2021,11,05,06,56,1007.18
2021,11,05,06,57,1007.34
2021,11,05,06,58,1007.49
2021,11,05,06,59,1007.52
2021,11,05,07,00,1007.52
2021,11,05,07,01,1007.52
2021,11,05,07,02,1007.52
2021,11,05,07,03,1007.52
2021,11,05,07,04,1007.52
2021,11,05,07,05,1007.52
2021,11,05,07,06,1005.89
2021,11,05,07,07,1005.45
2021,11,05,07,08,1005.45
2021,11,05,07,09,1005.45
2021,11,05,07,10,1005.45
2021,11,05,07,11,1001.71
2021,11,05,07,12,1000.71
2021,11,05,07,13,1000.71
2021,11,05,07,14,1000.71
2021,11,05,07,15,1000.71
2021,11,05,07,16,1000.71
2021,11,05,07,17,1000.71
2021,11,05,07,18,1001.96
2021,11,05,07,19,1002.27
2021,11,05,07,20,1002.27
2021,11,05,07,21,1002.27
2021,11,05,07,22,1002.27
2021,11,05,07,23,1002.27
2021,11,05,07,24,1002.27
2021,11,05,07,25,1002.27
2021,11,05,07,26,1006.52
2021,11,05,07,27,1007.93
2021,11,05,07,28,1004.97
2021,11,05,07,29,1004.53
2021,11,05,07,30,1004.61
2021,11,05,07,31,1004.61
2021,11,05,07,32,1005.65
2021,11,05,07,33,1005.93
2021,11,05,07,34,1005.93
2021,11,05,07,35,1005.93
2021,11,05,07,36,1005.93
2021,11,05,07,37,1005.93
2021,11,05,07,38,1005.93
2021,11,05,07,39,1005.93
2021,11,05,07,40,1005.93
2021,11,05,07,41,1005.93
2021,11,05,07,42,1005.93
2021,11,05,07,43,1005.93
2021,11,05,07,44,1005.93
2021,11,05,07,45,1005.93
2021,11,05,07,46,1005.93
2021,11,05,07,47,1005.93
2021,11,05,07,48,1005.93
2021,11,05,07,49,999.35
2021,11,05,07,50,997.60
2021,11,05,07,51,995.84
2021,11,05,07,52,995.26
2021,11,05,07,53,995.26
2021,11,05,07,54,995.26
2021,11,05,07,55,995.26
2021,11,05,07,56,995.26
2021,11,05,07,57,995.26
2021,11,05,07,58,995.26
2021,11,05,07,59,1003.08
2021,11,05,08,00,1005.69
2021,11,05,08,01,1005.69
2021,11,05,08,02,1005.89
2021,11,05,08,03,1005.96
2021,11,05,08,04,1005.96
2021,11,05,08,05,1005.96
2021,11,05,08,06,1005.96
2021,11,05,08,07,1002.87
2021,11,05,08,08,1001.90
2021,11,05,08,09,1001.90
2021,11,05,08,10,1001.90
2021,11,05,08,11,1001.90
2021,11,05,08,12,1001.90
2021,11,05,08,13,1001.90
2021,11,05,08,14,1001.90
2021,11,05,08,15,1001.90
2021,11,05,08,16,1001.15
2021,11,05,08,17,1000.88
2021,11,05,08,18,997.86
2021,11,05,08,19,997.10
2021,11,05,08,20,997.19
2021,11,05,08,21,997.19
2021,11,05,08,22,994.83
2021,11,05,08,23,994.04
2021,11,05,08,24,994.04
2021,11,05,08,25,990.78
2021,11,05,08,26,989.84
2021,11,05,08,27,989.81
2021,11,05,08,28,988.29
2021,11,05,08,29,987.88
2021,11,05,08,30,987.88
2021,11,05,08,31,987.88
2021,11,05,08,32,987.88
2021,11,05,08,33,987.88
2021,11,05,08,34,988.30
2021,11,05,08,35,988.20
2021,11,05,08,36,988.11
2021,11,05,08,37,988.11
2021,11,05,08,38,990.07
2021,11,05,08,39,990.32
2021,11,05,08,40,990.34
2021,11,05,08,41,990.38
2021,11,05,08,42,990.38
2021,11,05,08,43,990.38
2021,11,05,08,44,990.38
2021,11,05,08,45,990.38
2021,11,05,08,46,990.38
2021,11,05,08,47,990.38
2021,11,05,08,48,990.38
2021,11,05,08,49,990.38
2021,11,05,08,50,990.38
2021,11,05,08,51,990.38
2021,11,05,08,52,990.38
2021,11,05,08,53,990.38
2021,11,05,08,54,990.38
2021,11,05,08,55,990.38
2021,11,05,08,56,990.38
2021,11,05,08,57,990.38
2021,11,05,08,58,990.38
2021,11,05,08,59,990.38
2021,11,05,09,00,990.38
2021,11,05,09,01,990.38
2021,11,05,09,02,990.38
2021,11,05,09,03,990.38
2021,11,05,09,04,990.38
2021,11,05,09,05,990.38
2021,11,05,09,06,990.38
2021,11,05,09,07,996.91
2021,11,05,09,08,999.09
2021,11,05,09,09,999.09
2021,11,05,09,10,999.09
2021,11,05,09,11,999.09
2021,11,05,09,12,999.09
2021,11,05,09,13,999.09
2021,11,05,09,14,998.67
2021,11,05,09,15,998.54
2021,11,05,09,16,998.54
2021,11,05,09,17,994.43
2021,11,05,09,18,993.06
2021,11,05,09,19,993.06
2021,11,05,09,20,993.06
2021,11,05,09,21,998.09
2021,11,05,09,22,999.76
2021,11,05,09,23,999.76
2021,11,05,09,24,999.76
2021,11,05,09,25,999.76
2021,11,05,09,26,999.76
2021,11,05,09,27,999.76
2021,11,05,09,28,999.76
2021,11,05,09,29,999.76
2021,11,05,09,30,999.76
2021,11,05,09,31,994.48
2021,11,05,09,32,992.72
2021,11,05,09,33,991.05
2021,11,05,09,34,990.49
2021,11,05,09,35,990.49
2021,11,05,09,36,990.49
2021,11,05,09,37,990.49
2021,11,05,09,38,990.49
2021,11,05,09,39,990.49
2021,11,05,09,40,990.49
2021,11,05,09,41,990.49
2021,11,05,09,42,990.49
2021,11,05,09,43,990.49
2021,11,05,09,44,990.49
2021,11,05,09,45,990.49
2021,11,05,09,46,990.49
2021,11,05,09,47,990.49
2021,11,05,09,48,990.49
2021,11,05,09,49,990.49
2021,11,05,09,50,990.49
2021,11,05,09,51,990.49
2021,11,05,09,52,990.49
2021,11,05,09,53,990.49
2021,11,05,09,54,990.49
2021,11,05,09,55,990.49
2021,11,05,09,56,990.49
2021,11,05,09,57,990.49
2021,11,05,09,58,990.49
2021,11,05,09,59,990.49
2021,11,05,10,00,990.49
2021,11,05,10,01,990.49
2021,11,05,10,02,990.49
2021,11,05,10,03,990.49
2021,11,05,10,04,990.49
2021,11,05,10,05,990.49
2021,11,05,10,06,990.49
2021,11,05,10,07,990.49
2021,11,05,10,08,990.49
2021,11,05,10,09,990.49
2021,11,05,10,10,990.49
2021,11,05,10,11,990.49
2021,11,05,10,12,990.49
2021,11,05,10,13,990.49
2021,11,05,10,14,990.49
2021,11,05,10,15,990.49
2021,11,05,10,16,990.49
2021,11,05,10,17,990.49
2021,11,05,10,18,990.49
2021,11,05,10,19,990.49
2021,11,05,10,20,990.49
2021,11,05,10,21,990.49
2021,11,05,10,22,990.49
2021,11,05,10,23,990.49
2021,11,05,10,24,990.49
2021,11,05,10,25,990.49
2021,11,05,10,26,990.49
2021,11,05,10,27,990.49
2021,11,05,10,28,990.49
2021,11,05,10,29,990.49
2021,11,05,10,30,990.49
2021,11,05,10,31,990.49
2021,11,05,10,32,990.49
2021,11,05,10,33,990.49
2021,11,05,10,34,990.49
2021,11,05,10,35,990.49
2021,11,05,10,36,990.49
2021,11,05,10,37,990.49
2021,11,05,10,38,990.49
2021,11,05,10,39,990.49
2021,11,05,10,40,990.49
2021,11,05,10,41,990.49
2021,11,05,10,42,990.49
2021,11,05,10,43,990.49
2021,11,05,10,44,990.49
2021,11,05,10,45,990.49
2021,11,05,10,46,990.49
2021,11,05,10,47,990.49
2021,11,05,10,48,990.49
2021,11,05,10,49,990.49
2021,11,05,10,50,990.49
2021,11,05,10,51,990.49
2021,11,05,10,52,990.49
2021,11,05,10,53,990.49
2021,11,05,10,54,990.49
2021,11,05,10,55,990.49
2021,11,05,10,56,990.49
2021,11,05,10,57,990.49
2021,11,05,10,58,990.49
2021,11,05,10,59,990.49
2021,11,05,11,00,990.49
2021,11,05,11,01,990.49
2021,11,05,11,02,990.49
2021,11,05,11,03,990.49
2021,11,05,11,04,990.49
2021,11,05,11,05,990.49
2021,11,05,11,06,990.49
2021,11,05,11,07,990.49
2021,11,05,11,08,990.49
2021,11,05,11,09,990.49
2021,11,05,11,10,990.49
2021,11,05,11,11,990.49
2021,11,05,11,12,990.49
2021,11,05,11,13,990.49
2021,11,05,11,14,990.49
2021,11,05,11,15,990.49
2021,11,05,11,16,990.49
2021,11,05,11,17,990.49
2021,11,05,11,18,990.49
2021,11,05,11,19,990.49
2021,11,05,11,20,990.49
2021,11,05,11,21,990.49
2021,11,05,11,22,990.49
2021,11,05,11,23,990.49
2021,11,05,11,24,990.49
2021,11,05,11,25,990.49
2021,11,05,11,26,990.49
2021,11,05,11,27,990.49
2021,11,05,11,28,990.49
2021,11,05,11,29,990.49
2021,11,05,11,30,990.49
2021,11,05,11,31,990.49
2021,11,05,11,32,990.49
2021,11,05,11,33,990.49
2021,11,05,11,34,990.49
2021,11,05,11,35,990.49
2021,11,05,11,36,990.49
2021,11,05,11,37,990.49
2021,11,05,11,38,990.49
2021,11,05,11,39,990.49
2021,11,05,11,40,990.49
2021,11,05,11,41,990.49
2021,11,05,11,42,990.49
2021,11,05,11,43,990.49
2021,11,05,11,44,990.49
2021,11,05,11,45,990.49
2021,11,05,11,46,990.49
2021,11,05,11,47,990.49
2021,11,05,11,48,990.49
2021,11,05,11,49,990.49
2021,11,05,11,50,990.49
2021,11,05,11,51,990.49
2021,11,05,11,52,990.49
2021,11,05,11,53,990.49
2021,11,05,11,54,990.49
2021,11,05,11,55,990.49
2021,11,05,11,56,990.49
2021,11,05,11,57,990.49
2021,11,05,11,58,990.49
2021,11,05,11,59,990.49
2021,11,05,13,20,940.84
2021,11,05,13,21,940.84
2021,11,05,13,22,940.84
2021,11,05,13,23,940.84
2021,11,05,13,24,940.84
2021,11,05,13,25,940.84
2021,11,05,13,26,940.84
2021,11,05,13,27,940.84
2021,11,05,13,28,940.84
2021,11,05,13,29,940.84
2021,11,05,13,30,940.84
2021,11,05,13,31,940.84
2021,11,05,13,32,940.84
2021,11,05,13,33,940.84
2021,11,05,13,34,940.84
2021,11,05,13,35,940.84
2021,11,05,13,36,940.84
2021,11,05,13,37,940.84
2021,11,05,13,38,940.84
2021,11,05,13,39,940.84
2021,11,05,13,40,940.84
2021,11,05,13,41,940.84
2021,11,05,13,42,940.84
2021,11,05,13,43,940.84
2021,11,05,13,44,940.84
2021,11,05,13,45,940.84
2021,11,05,13,46,940.84
2021,11,05,13,47,940.84
2021,11,05,13,48,940.84
2021,11,05,13,49,940.84
2021,11,05,13,50,1012.42
2021,11,05,13,51,1045.45
2021,11,05,13,52,1045.45
2021,11,05,13,53,1045.45
2021,11,05,13,54,1045.45
2021,11,05,13,55,1045.45
2021,11,05,13,56,1045.45
2021,11,05,13,57,1045.45
2021,11,05,13,58,1045.45
2021,11,05,13,59,1045.45
2021,11,05,14,00,1045.45
2021,11,05,14,01,1045.45
2021,11,05,14,02,1045.45
2021,11,05,14,03,1045.45
2021,11,05,14,04,1045.45
2021,11,05,14,05,1045.45
2021,11,05,14,06,1045.45
2021,11,05,14,07,1045.45
2021,11,05,14,08,1045.45
2021,11,05,14,09,1045.45
2021,11,05,14,10,1045.45
2021,11,05,14,11,1045.45
2021,11,05,14,12,1045.45
2021,11,05,14,13,1045.45
2021,11,05,14,14,1045.45
2021,11,05,14,15,1045.45
2021,11,05,14,16,1045.45
2021,11,05,14,17,1045.45
2021,11,05,14,18,1045.45
2021,11,05,14,19,1045.45
2021,11,05,14,20,1045.45
2021,11,05,14,21,1045.45
2021,11,05,14,22,1045.45
2021,11,05,14,23,1045.45
2021,11,05,14,24,1045.45
2021,11,05,14,25,1045.45
2021,11,05,14,26,1045.45
2021,11,05,14,27,1045.45
2021,11,05,14,28,1045.45
2021,11,05,14,29,1045.45
2021,11,05,14,30,1045.45
2021,11,05,14,31,1045.45
2021,11,05,14,32,1045.45
2021,11,05,14,33,1045.45
2021,11,05,14,34,1045.45
2021,11,05,14,35,1045.45
2021,11,05,14,36,1045.45
2021,11,05,14,37,1045.45
2021,11,05,14,38,1045.45
2021,11,05,14,39,1045.45
2021,11,05,14,40,1045.45
2021,11,05,14,41,1045.45
2021,11,05,14,42,1045.45
2021,11,05,14,43,1045.45
2021,11,05,14,44,1045.45
2021,11,05,14,45,1045.45
2021,11,05,14,46,1045.45
2021,11,05,14,47,1045.45
2021,11,05,14,48,1045.45
2021,11,05,14,49,1045.45
2021,11,05,14,50,1045.45
2021,11,05,14,51,1045.45
2021,11,05,14,52,1045.45
2021,11,05,14,53,1045.45
2021,11,05,14,54,1045.45
2021,11,05,14,55,1045.45
2021,11,05,14,56,1045.45
2021,11,05,14,57,1045.45
2021,11,05,14,58,1045.45
2021,11,05,14,59,1045.45
2021,11,05,15,00,1045.45
2021,11,05,15,01,1045.45
2021,11,05,15,02,1045.45
2021,11,05,15,03,1045.45
2021,11,05,15,04,1045.45
2021,11,05,15,05,1045.45
2021,11,05,15,06,1045.45
2021,11,05,15,07,1045.45
2021,11,05,15,08,1045.45
2021,11,05,15,09,1045.45
2021,11,05,15,10,1045.45
2021,11,05,15,11,1045.45
2021,11,05,15,12,1045.45
2021,11,05,15,13,1045.45
2021,11,05,15,14,1045.45
2021,11,05,15,15,1045.45
2021,11,05,15,16,1045.45
2021,11,05,15,17,1045.45
2021,11,05,15,18,1045.45
2021,11,05,15,19,1045.45
2021,11,05,17,50,906.77
2021,11,05,17,51,906.77
2021,11,05,17,52,906.77
2021,11,05,17,53,906.77
2021,11,05,17,54,906.77
2021,11,05,17,55,906.77
2021,11,05,17,56,906.77
2021,11,05,17,57,906.77
2021,11,05,17,58,906.77
2021,11,05,17,59,906.77
2021,11,05,18,00,906.77
2021,11,05,18,01,906.77
2021,11,05,18,02,906.77
2021,11,05,18,03,906.77
2021,11,05,18,04,906.77
2021,11,05,18,05,906.77
2021,11,05,18,06,906.77
2021,11,05,18,07,906.77
2021,11,05,18,08,906.77
2021,11,05,18,09,906.77
2021,11,05,18,10,906.77
2021,11,05,18,11,906.77
2021,11,05,18,12,906.77
2021,11,05,18,13,906.77
2021,11,05,18,14,906.77
2021,11,05,18,15,906.77
2021,11,05,18,16,906.77
2021,11,05,18,17,906.77
2021,11,05,18,18,906.77
2021,11,05,18,19,906.77
2021,11,05,18,20,906.77
2021,11,05,18,21,906.77
2021,11,05,18,22,906.77
2021,11,05,18,23,906.77
2021,11,05,18,24,906.77
2021,11,05,18,25,906.77
2021,11,05,18,26,906.77
2021,11,05,18,27,937.16
2021,11,05,18,28,954.89
2021,11,05,18,29,954.89
2021,11,05,18,30,954.89
2021,11,05,18,31,954.89
2021,11,05,18,32,948.32
2021,11,05,18,33,945.28
2021,11,05,18,34,945.28
2021,11,05,18,35,945.28
2021,11,05,18,36,945.28
2021,11,05,18,37,945.28
2021,11,05,18,38,945.28
2021,11,05,18,39,945.28
2021,11,05,18,40,944.10
2021,11,05,18,41,943.41
2021,11,05,18,42,943.41
2021,11,05,18,43,943.41
2021,11,05,18,44,943.41
2021,11,05,18,45,943.41
2021,11,05,18,46,942.88
2021,11,05,18,47,942.60
2021,11,05,18,48,947.35
2021,11,05,18,49,949.54
2021,11,05,18,50,949.54
2021,11,05,18,51,949.54
2021,11,05,18,52,949.54
2021,11,05,18,53,949.54
2021,11,05,18,54,949.54
2021,11,05,18,55,949.54
2021,11,05,18,56,949.54
2021,11,05,18,57,949.54
2021,11,05,18,58,949.54
2021,11,05,18,59,949.54
2021,11,05,19,00,949.54
2021,11,05,19,01,949.54
2021,11,05,19,02,949.54
2021,11,05,19,03,949.54
2021,11,05,19,04,949.54
2021,11,05,19,05,949.54
2021,11,05,19,06,960.32
2021,11,05,19,07,965.29
2021,11,05,19,08,965.29
2021,11,05,19,09,965.29
2021,11,05,19,10,965.29
2021,11,05,19,11,965.29
2021,11,05,19,12,965.29
2021,11,05,19,13,965.29
2021,11,05,19,14,965.29
2021,11,05,19,15,965.29
2021,11,05,19,16,965.29
2021,11,05,19,17,965.29
2021,11,05,19,18,965.29
2021,11,05,19,19,965.29
2021,11,05,19,20,965.29
2021,11,05,19,21,965.29
2021,11,05,19,22,965.29
2021,11,05,19,23,965.29
2021,11,05,19,24,965.29
2021,11,05,19,25,965.29
2021,11,05,19,26,971.59
2021,11,05,19,27,974.98
2021,11,05,19,28,974.98
2021,11,05,19,29,974.98
2021,11,05,19,30,974.98
2021,11,05,19,31,974.98
2021,11,05,19,32,974.98
2021,11,05,19,33,974.98
2021,11,05,19,34,974.98
2021,11,05,19,35,974.98
2021,11,05,19,36,974.98
2021,11,05,19,37,974.98
2021,11,05,19,38,974.98
2021,11,05,19,39,974.98
2021,11,05,19,40,974.98
2021,11,05,19,41,978.50
2021,11,05,19,42,980.39
2021,11,05,19,43,980.39
2021,11,05,19,44,980.39
2021,11,05,19,45,978.54
2021,11,05,19,46,977.55
2021,11,05,19,47,977.55
2021,11,05,19,48,977.55
2021,11,05,19,49,977.55
2021,11,05,19,50,977.55
2021,11,05,19,51,977.55
2021,11,05,19,52,977.55
2021,11,05,19,53,977.55
2021,11,05,19,54,977.55
2021,11,05,19,55,978.71
2021,11,05,19,56,979.38
2021,11,05,19,57,979.38
2021,11,05,19,58,979.38
2021,11,05,19,59,979.38
2021,11,05,20,00,979.38
2021,11,05,20,01,979.38
2021,11,05,20,02,979.38
2021,11,05,20,03,979.38
2021,11,05,20,04,979.38
2021,11,05,20,05,979.38
2021,11,05,20,06,979.38
2021,11,05,20,07,979.38
2021,11,05,20,08,979.38